sat.trackr.live / text

‹ back to catalog

MULE 4T

NORAD 67286 · 2025-313AQ

PAYLOAD ACTIVE UNKNOWN

§ Identity

Operator
Country
CIS
Launch date
2025-12-28
Launch site
VOSTO
Launch vehicle
Mass (kg)
RCS (m²)

External: N2YO · Heavens-Above · Gunter

§ Orbital elements

Epoch: 2026-09-20T22:41:13.261632Z

Period
94.39 min
Inclination
97.3855°
Eccentricity
0.0009781
Mean motion
15.25537837 rev/d
Perigee alt
482.5 km
Apogee alt
495.9 km
Semi-major
6,867.3 km
B*
2.2157e-4
RAAN
337.6328°
Arg perigee
26.7473°
Mean anomaly
333.4268°
Rev number
4,056

§ Raw data

MULE 4T1 67286U 25313AQ  26263.94529238  .00005553  00000+0  22157-3 0  99912 67286  97.3855 337.6328 0009781  26.7473 333.4268 15.25537837 40564

JSON: /api/v1/satellites/67286 · /tle

For live sub-satellite position, see the globe view (requires WebGL).

§ Visibility from observer

Set your observer location to see the next 7 days of passes ≥ 10°. The values pass through the URL so the page stays shareable.

No JS? Fill the form by hand. The geolocation button needs JavaScript.